Miscellaneous Local Product
Issued by NWS Hastings, NE

Home | Current Version | Previous Version | Graphics & Text | Print | Product List | Glossary On
Versions: 1 2 3 4 5 6 7 8 9 10 11 12 13 14 15 16 17 18 19 20 21 22 23 24 25 26 27 28 29 30 31 32 33 34 35 36 37 38 39 40 41 42 43 44 45 46 47 48 49 50
000
AXUS43 KGID 180402
MISGRI

GID CWA HOURLY WEATHER ROUNDUP
NATIONAL WEATHER SERVICE HASTINGS NE
1000 PM CST SUN DEC 17 2017

NOTE: "FAIR" INDICATES FEW OR NO CLOUDS BELOW 12,000 FEET WITH NO
SIGNIFICANT WEATHER AND/OR OBSTRUCTIONS TO VISIBILITY.

...SOUTH CENTRAL NEBRASKA...

CITY           SKY/WX    TMP DP  RH WIND       PRES   REMARKS
GRAND ISLAND   CLOUDY    26  24  92 SW5       30.01R WCI  20
KEARNEY        CLOUDY    28  26  92 SW6       30.00F WCI  22
HASTINGS       CLOUDY    28  25  88 SW5       30.01S WCI  23
ORD            CLEAR     24  23  96 SW7       29.95F WCI  16
YORK           CLOUDY    25  25 100 SW5       30.01S WCI  19
AURORA         CLOUDY    24  23  94 SW5       30.01R WCI  19
LEXINGTON      CLOUDY    26  24  90 S6        29.99S WCI  20
HOLDREGE       CLOUDY    28  27  95 SW6       30.00S WCI  22
HEBRON         CLOUDY    27  25  91 W5        30.02S WCI  22

...NEBRASKA PANHANDLE...

CITY           SKY/WX    TMP DP  RH WIND       PRES   REMARKS
CHADRON        CLEAR     31  17  56 W10       29.90S WCI  22
ALLIANCE       CLOUDY    15  11  83 W10       29.89S WCI   2
SCOTTSBLUFF    CLOUDY    24  13  62 NW5       29.92F WCI  18
SIDNEY         CLEAR     24  21  88 W10       29.95R WCI  14

...WESTERN AND NORTH CENTRAL NEBRASKA...

CITY           SKY/WX    TMP DP  RH WIND       PRES   REMARKS
VALENTINE      CLEAR     33  28  81 SW14      29.85F WCI  23
AINSWORTH      CLEAR     32  31  96 S13       29.88F WCI  22
ONEILL         CLEAR     31  28  91 S9        29.92F WCI  22
BROKEN BOW     CLEAR     28  24  85 S3        29.95S
IMPERIAL       CLEAR     26  23  88 SW8       29.98S WCI  18
NORTH PLATTE   CLEAR     30  27  88 S7        29.96S WCI  23
MCCOOK         CLEAR     27  25  92 SW9       30.00F WCI  18

...EASTERN NEBRASKA...

CITY           SKY/WX    TMP DP  RH WIND       PRES   REMARKS
NORFOLK        CLOUDY    22  20  92 CALM      29.96F
SO SIOUX CITY  CLOUDY    22  21  96 CALM      29.99S
TEKAMAH        CLOUDY    23  17  78 S6        30.00F WCI  16
COLUMBUS       CLOUDY    22  19  89 CALM      30.01R
ALBION         CLEAR     31  27  82 S3        29.97F
OMAHA EPPLEY   MOCLDY    29  24  82 CALM      30.02S
OFFUTT AFB     CLOUDY    28  25  90 CALM      30.01S
MILLARD        PTCLDY    31  28  88 CALM      30.02R
LINCOLN        CLOUDY    32  29  88 CALM      30.03S FOG
NEBRASKA CITY  CLOUDY    29  29 100 SW5       30.01S FOG     WCI  24
BEATRICE       PTCLDY    29  28  96 CALM      30.00F FOG
FALLS CITY     CLOUDY    36  35  96 CALM      30.01F FOG

...NORTHERN KANSAS...

CITY           SKY/WX    TMP DP  RH WIND       PRES   REMARKS
GOODLAND       CLOUDY    23  20  88 SW8       30.00R WCI  14
HILL CITY      CLOUDY    24  21  88 SW3       30.03F
NORTON         CLEAR     25  19  80 SW7       30.01S WCI  17
PHILLIPSBURG   CLEAR     25  25 100 W7        30.03F WCI  17
SMITH CENTER   CLOUDY    27  25  93 CALM      30.03F
HAYS           CLOUDY    28  25  88 NW6       30.04S WCI  22
RUSSELL        CLOUDY    31  28  89 NW6       30.03S WCI  25
CONCORDIA      CLEAR     31  27  85 W5        30.02S WCI  26
SALINA         CLEAR     36  29  75 NW5       30.05R WCI  32
TOPEKA         CLOUDY    46  42  86 SW12      30.01S



USA.gov is the U.S. government's official web portal to all federal, state and local government web resources and services.